[[{"header":{"parameterUnit":"m.s-1","parameterCategory":2,"la1":30.2991,"la2":30.254,"lo1":-89.0895,"lo2":-89.0444,"dy":0.0017,"dx":0.0017,"nx":28,"ny":28,"refTime":"2023-10-22T09:00:00:Z","depth":"0","parameterNumber":2,"parameterNumberName":"U-component_of_CURRENTS"},"data":[0,0,0,0,0,0,0,0,0,0,0,0,0,0,0,0,0,0,0,0,0,0,0,0,0,0,0,0,0,0,0,0,0,0,0,0,0,0,0,0,0,0,0,0,0,0,0,0,0,0,0,0,0,0,0,0,0,0,0.3903,0.3902,0,0.3754,0.3751,0.3749,0.3698,0.3699,0.3701,0.3703,0.3526,0.352,0.3514,0,0,0,0,0,0,0,0,0,0,0,0,0,0.4066,0.4063,0.3903,0.3902,0.3901,0.3754,0.3751,0.3748,0.3697,0.37,0.3702,0.3704,0.3528,0.3521,0.3513,0,0,0,0,0,0,0,0,0,0,0,0,0,0.3953,0.4062,0.3903,0.3867,0.3863,0.3755,0.3751,0.3747,0.3697,0.37,0.3702,0.3704,0.353,0.3521,0.3512,0.3403,0,0,0.3483,0.3479,0,0,0,0,0,0,0,0,0.3959,0.3945,0.3873,0.3869,0.3865,0.3757,0.3745,0.3635,0.3696,0.3747,0.3703,0.3706,0.3607,0.3591,0.3541,0.3395,0.3387,0.3482,0.3477,0.3473,0.347,0,0,0,0,0,0,0,0.3967,0.3951,0.3832,0.3872,0.3867,0.3833,0.3819,0.3722,0.3655,0.3743,0.3742,0.3744,0.3603,0.355,0.3537,0.3385,0.3483,0.3474,0.3468,0.3465,0.3252,0.3252,0,0,0,0,0,0,0.401,0.3958,0.3837,0.3828,0.3933,0.3829,0.3813,0.378,0.3656,0.3644,0.3742,0.3742,0.3565,0.3548,0.353,0.351,0.3473,0.3464,0.3458,0.3252,0.3252,0.3252,0,0,0,0,0,0,0.4013,0.3999,0.3843,0.3902,0.3882,0.3826,0.3787,0.3776,0.3753,0.3658,0.3643,0.3737,0.3566,0.3544,0.3476,0.3499,0.346,0.3451,0.3252,0.3252,0.3252,0.3395,0,0,0,0,0,0,0.4018,0.4,0.3968,0.3904,0.388,0.3801,0.3786,0.3771,0.3754,0.3753,0.3648,0.3632,0.3566,0.3491,0.3467,0.3485,0.3444,0.3252,0.3252,0.3252,0.339,0.34,0.3408,0,0,0,0,0,0.4023,0.3962,0.3966,0.3952,0.3844,0.3802,0.3784,0.3746,0.3752,0.3735,0.3678,0.3637,0.3474,0.3482,0.3454,0.3471,0.3252,0.3252,0.3252,0.3386,0.3398,0.3408,0,0,0,0,0,0,0.3952,0.3951,0.3954,0.3877,0.3864,0.3799,0.3757,0.376,0.3694,0.369,0.3619,0.3597,0.3553,0.348,0.3491,0.3409,0.3362,0.3356,0.3474,0.3484,0.3492,0.3517,0.3436,0,0,0,0,0,0.3942,0.3931,0.3914,0.3852,0.3847,0.3814,0.3787,0.3779,0.3728,0.3702,0.364,0.357,0.3519,0.3482,0.3408,0.3343,0.3348,0.3339,0.3348,0.3356,0.3356,0.3393,0.3407,0.3252,0.3252,0.3252,0,0,0.3902,0.3893,0.3885,0.3846,0.3816,0.3811,0.3799,0.3767,0.3772,0.3689,0.3643,0.3592,0.351,0.3458,0.3431,0.3406,0.3412,0.3356,0.3365,0.3359,0.3395,0.3411,0.3425,0.3252,0.3252,0.3252,0,0,0.3857,0.3806,0.3818,0.3811,0.3808,0.3788,0.3802,0.3765,0.3755,0.3715,0.3678,0.3652,0.3533,0.3504,0.3472,0.3477,0.3463,0.345,0.3507,0.3544,0.3559,0.3571,0.3651,0.367,0.345,0.345,0.3451,0,0.3824,0.3817,0.3805,0.3814,0.3813,0.3799,0.3813,0.3785,0.3737,0.3736,0.372,0.362,0.3563,0.3543,0.3554,0.3503,0.353,0.3483,0.3563,0.3574,0.3585,0.3663,0.3682,0.3457,0.3456,0.3456,0.3455,0,0.3831,0.3808,0.3795,0.3828,0.3814,0.3807,0.3808,0.3793,0.3789,0.378,0.3763,0.3694,0.3645,0.3634,0.3592,0.3632,0.3635,0.3583,0.3552,0.3611,0.3688,0.3705,0.3467,0.3465,0.3463,0.3461,0,0,0.3853,0.382,0.383,0.3834,0.383,0.3821,0.3824,0.3835,0.3845,0.3816,0.3832,0.3783,0.3766,0.3729,0.369,0.3719,0.3844,0.3688,0.3687,0.3798,0.3971,0.3813,0.3816,0.3814,0.3816,0.3818,0.4017,0,0.3891,0.3899,0.3885,0.3889,0.3891,0.3871,0.3872,0.3873,0.3863,0.3857,0.3845,0.3823,0.3797,0.3782,0.3818,0.3806,0.3885,0.3797,0.3868,0.3871,0.3748,0.3828,0.3562,0.3699,0.4033,0.4036,0.4038,0,0.3961,0.3953,0.3962,0.3925,0.3928,0.3926,0.393,0.3927,0.392,0.3913,0.3913,0.3886,0.3916,0.3882,0.3969,0.3915,0.397,0.3985,0.3992,0.3797,0.3741,0.3678,0.3717,0.3568,0.4064,0.4062,0.406,0,0.4033,0.4015,0.4018,0.4011,0.3972,0.3976,0.3961,0.3951,0.3944,0.3948,0.3942,0.397,0.3966,0.4035,0.4059,0.403,0.4162,0.4122,0.4061,0.4054,0.3811,0.3775,0.3724,0.4239,0.4238,0.4238,0.4237,0,0.4089,0.409,0.4044,0.4047,0.4052,0.4013,0.4016,0.4005,0.3983,0.3973,0.3972,0.3973,0.4001,0.4054,0.4108,0.4125,0.4217,0.4093,0.4085,0.3854,0.382,0.3659,0.3639,0.4245,0.4244,0.4242,0.4241,0,0.4137,0.4115,0.4116,0.4088,0.4077,0.408,0.4031,0.4021,0.4005,0.3992,0.3995,0.3997,0.4047,0.4094,0.4192,0.4154,0.4064,0.4212,0.395,0.3903,0.3623,0.3622,0.3499,0.3419,0.4164,0.4161,0.4158,0,0.4139,0.4147,0.4148,0.4146,0.4125,0.4108,0.4088,0.4049,0.4023,0.4004,0.3998,0.403,0.4038,0.4104,0.4031,0.4089,0.4011,0.3871,0.3737,0.3579,0.3576,0.3486,0.3424,0.3526,0.3519,0.3513,0.3508,0,0.4136,0.4154,0.415,0.4163,0.4151,0.4125,0.4085,0.4066,0.4015,0.399,0.3963,0.3972,0.3957,0.3819,0.3819,0.3806,0.36,0.3743,0.3638,0.3114,0.2956,0.2882,0.3479,0.3454,0.3459,0.3463,0.3466,0.3468,0.4126,0.4131,0.414,0.4146,0.4137,0.4107,0.4039,0.3992,0.3933,0.3801,0.3895,0.3795,0.3628,0.354,0.3506,0.313,0.3278,0.2972,0.3015,0.2963,0.2749,0.3235,0.3135,0.3138,0.3141,0.3144,0.3146,0,0.4079,0.4093,0.4102,0.409,0.4051,0.4064,0.3991,0.3868,0.3743,0.3683,0.3612,0.3363,0.314,0.297,0.2573,0.2412,0.2332,0.2323,0.2141,0.2146,0.2611,0.2435,0.2101,0.2101,0.2101,0.2101,0.2102,0.2102,0.4048,0.4043,0.4051,0.3985,0.3963,0.381,0.3738,0.3581,0.3477,0.3175,0.297,0.2917,0.2651,0.2261,0.1892,0.1835,0.1738,0.1604,0.1747,0.2046,0.2109,0.2169,0.1994,0.1574,0.1573,0.1103,0.1099,0.1096]},{"header":{"parameterUnit":"m.s-1","parameterCategory":2,"la1":30.2991,"la2":30.254,"lo1":-89.0895,"lo2":-89.0444,"dy":0.0017,"dx":0.0017,"nx":28,"ny":28,"refTime":"2023-10-22T09:00:00:Z","depth":"0","parameterNumber":3,"parameterNumberName":"V-component_of_CURRENTS"},"data":[0,0,0,0,0,0,0,0,0,0,0,0,0,0,0,0,0,0,0,0,0,0,0,0,0,0,0,0,0,0,0,0,0,0,0,0,0,0,0,0,0,0,0,0,0,0,0,0,0,0,0,0,0,0,0,0,0,0,-0.1057,-0.1059,0,-0.1225,-0.1226,-0.1228,-0.1332,-0.1333,-0.1334,-0.1335,-0.1341,-0.134,-0.1339,0,0,0,0,0,0,0,0,0,0,0,0,0,-0.0922,-0.0923,-0.1057,-0.106,-0.1062,-0.1225,-0.1227,-0.1228,-0.1332,-0.1333,-0.1335,-0.1336,-0.1341,-0.134,-0.1339,0,0,0,0,0,0,0,0,0,0,0,0,0,-0.1019,-0.0923,-0.1057,-0.1138,-0.1147,-0.1224,-0.1227,-0.1229,-0.1332,-0.1333,-0.1335,-0.1336,-0.1342,-0.134,-0.1339,-0.13,0,0,-0.1335,-0.1335,0,0,0,0,0,0,0,0,-0.1013,-0.1023,-0.1123,-0.1132,-0.1143,-0.1264,-0.1182,-0.1246,-0.1331,-0.1256,-0.1335,-0.1337,-0.1302,-0.1305,-0.1327,-0.13,-0.13,-0.1335,-0.1335,-0.1334,-0.1334,0,0,0,0,0,0,0,-0.1006,-0.1017,-0.1118,-0.1126,-0.1138,-0.1199,-0.1213,-0.1195,-0.1261,-0.1263,-0.1272,-0.1299,-0.1306,-0.1329,-0.1328,-0.1301,-0.1335,-0.1334,-0.1333,-0.1333,-0.1282,-0.1282,0,0,0,0,0,0,-0.0989,-0.101,-0.1113,-0.1124,-0.1086,-0.12,-0.1215,-0.1219,-0.1265,-0.1277,-0.1297,-0.1303,-0.133,-0.1329,-0.1328,-0.1286,-0.1334,-0.1333,-0.1332,-0.1283,-0.1282,-0.1281,0,0,0,0,0,0,-0.0985,-0.0996,-0.1106,-0.1077,-0.1096,-0.12,-0.1204,-0.1222,-0.1249,-0.1294,-0.1302,-0.1308,-0.1331,-0.133,-0.1323,-0.1287,-0.1332,-0.1331,-0.1283,-0.1282,-0.1282,-0.1199,0,0,0,0,0,0,-0.098,-0.0992,-0.097,-0.1074,-0.1097,-0.1132,-0.1204,-0.1224,-0.1266,-0.1275,-0.1305,-0.1308,-0.1332,-0.1325,-0.1322,-0.1286,-0.133,-0.1284,-0.1283,-0.1282,-0.1202,-0.1195,-0.1189,0,0,0,0,0,-0.0974,-0.0929,-0.0967,-0.098,-0.1068,-0.1131,-0.1146,-0.1224,-0.1264,-0.1257,-0.1298,-0.1307,-0.1316,-0.1323,-0.132,-0.1282,-0.1285,-0.1283,-0.1282,-0.1205,-0.1197,-0.1189,0,0,0,0,0,0,-0.0836,-0.094,-0.0983,-0.0965,-0.1039,-0.115,-0.1142,-0.1213,-0.1243,-0.1237,-0.1294,-0.1298,-0.1281,-0.1294,-0.1302,-0.1269,-0.1302,-0.13,-0.1245,-0.1237,-0.123,-0.1173,-0.1329,0,0,0,0,0,-0.0801,-0.0808,-0.0917,-0.0901,-0.0926,-0.1035,-0.1066,-0.1123,-0.1179,-0.1197,-0.1237,-0.1261,-0.1271,-0.1265,-0.1274,-0.1242,-0.12,-0.122,-0.1213,-0.1207,-0.116,-0.1101,-0.1084,-0.1277,-0.1277,-0.1277,0,0,-0.0754,-0.0802,-0.0811,-0.0875,-0.093,-0.096,-0.1054,-0.1082,-0.1106,-0.1183,-0.1196,-0.1232,-0.126,-0.1243,-0.1234,-0.1247,-0.1126,-0.1205,-0.12,-0.1155,-0.1098,-0.1078,-0.1061,-0.1276,-0.1276,-0.1276,0,0,-0.0688,-0.0691,-0.0701,-0.0742,-0.0818,-0.0875,-0.0882,-0.0988,-0.102,-0.1047,-0.1112,-0.1122,-0.115,-0.1163,-0.1172,-0.1124,-0.1097,-0.114,-0.1047,-0.0991,-0.0973,-0.0957,-0.0851,-0.0826,-0.1131,-0.1131,-0.1131,0,-0.0641,-0.066,-0.0708,-0.0723,-0.075,-0.0834,-0.0851,-0.0881,-0.0976,-0.0977,-0.103,-0.1067,-0.1102,-0.1069,-0.1073,-0.1101,-0.1053,-0.1075,-0.0978,-0.0961,-0.0946,-0.0841,-0.0814,-0.1127,-0.1127,-0.1128,-0.1128,0,-0.0622,-0.0617,-0.0607,-0.0663,-0.0673,-0.069,-0.0748,-0.075,-0.0802,-0.0851,-0.0842,-0.0903,-0.0917,-0.0947,-0.0998,-0.0918,-0.091,-0.0978,-0.0988,-0.0921,-0.0815,-0.0789,-0.1121,-0.1122,-0.1124,-0.1125,0,0,-0.0637,-0.0611,-0.0622,-0.0619,-0.0646,-0.0664,-0.063,-0.0652,-0.0625,-0.0684,-0.0653,-0.0702,-0.073,-0.0742,-0.0805,-0.0772,-0.0643,-0.0824,-0.0823,-0.0696,-0.0465,-0.0446,-0.0415,-0.0699,-0.0695,-0.0692,-0.0423,0,-0.0649,-0.0644,-0.0626,-0.0608,-0.0615,-0.0604,-0.0572,-0.0565,-0.0567,-0.0538,-0.056,-0.0556,-0.0652,-0.0659,-0.0632,-0.0652,-0.0575,-0.0705,-0.0566,-0.0559,-0.0534,-0.0385,-0.0393,-0.0154,-0.0397,-0.0393,-0.039,0,-0.0703,-0.0683,-0.0667,-0.0587,-0.0585,-0.0567,-0.0499,-0.0476,-0.0405,-0.0395,-0.0353,-0.0373,-0.0319,-0.0431,-0.0337,-0.0416,-0.0406,-0.0419,-0.041,-0.0394,-0.0491,-0.0269,-0.0097,-0.0202,-0.0349,-0.0353,-0.0355,0,-0.0768,-0.0722,-0.07,-0.0687,-0.0609,-0.057,-0.0525,-0.0447,-0.0395,-0.0291,-0.023,-0.0174,-0.0137,-0.0117,-0.0132,-0.0221,-0.0012,-0.0145,-0.0089,-0.0087,-0.0061,-0.0064,0.0046,-0.0028,-0.0029,-0.0029,-0.003,0,-0.082,-0.0802,-0.0726,-0.072,-0.066,-0.0591,-0.0508,-0.0439,-0.0319,-0.0212,-0.0165,-0.0064,-0.0062,0.0036,-0.0004,0.008,0.011,0.0006,0.0002,-0.0033,-0.0036,-0.0107,-0.0181,-0.0019,-0.0021,-0.0023,-0.0025,0,-0.0883,-0.0849,-0.0813,-0.0726,-0.0694,-0.0652,-0.0508,-0.0424,-0.031,-0.0154,-0.0105,0.006,0.0219,0.0252,0.033,0.0265,0.0291,0.033,0.0322,0.0311,0.0207,0.0137,0.0331,0.0308,0.0452,0.0454,0.0456,0,-0.0896,-0.0896,-0.0829,-0.079,-0.0746,-0.0665,-0.0585,-0.0453,-0.034,-0.0079,0.0014,0.0233,0.0414,0.0589,0.0557,0.0617,0.0464,0.0581,0.0387,0.0283,0.0202,0.0144,0.0103,0.0475,0.0477,0.0479,0.048,0,-0.0902,-0.09,-0.0853,-0.0792,-0.0723,-0.0625,-0.0495,-0.0406,-0.0202,-0.0017,0.0262,0.0438,0.0632,0.0743,0.0806,0.0763,0.051,0.0613,0.0506,0.027,0.0222,0.0166,0.0239,0.0494,0.0493,0.0492,0.0491,0.049,-0.0885,-0.0862,-0.0811,-0.0736,-0.0667,-0.054,-0.0409,-0.0231,0.0003,0.0361,0.0447,0.0798,0.0833,0.095,0.0861,0.0677,0.066,0.0552,0.0502,0.0473,0.0377,0.0515,0.0731,0.0731,0.0731,0.0731,0.0731,0,-0.0806,-0.078,-0.0732,-0.0626,-0.0519,-0.0494,-0.0292,-0.0106,0.0223,0.0539,0.0829,0.1095,0.1091,0.0987,0.0755,0.0577,0.0464,0.0472,0.0357,0.0334,0.0472,0.0388,0.0539,0.0539,0.0539,0.0539,0.0539,0.0539,-0.0754,-0.0685,-0.0661,-0.0483,-0.0398,-0.0191,-0.0047,0.0212,0.0478,0.0946,0.1243,0.143,0.1343,0.0838,0.0484,0.0399,0.0243,0.0259,0.02,0.0211,0.0212,0.0212,0.0114,0.0205,0.0205,0.0051,0.005,0.0048]}],[{"header":{"parameterUnit":"m.s-1","parameterCategory":2,"la1":30.2991,"la2":30.254,"lo1":-89.0895,"lo2":-89.0444,"dy":0.0017,"dx":0.0017,"nx":28,"ny":28,"refTime":"2023-10-22T09:00:00:Z","depth":"2","parameterNumber":2,"parameterNumberName":"U-component_of_CURRENTS"},"data":[0,0,0,0,0,0,0,0,0,0,0,0,0,0,0,0,0,0,0,0,0,0,0,0,0,0,0,0,0,0,0,0,0,0,0,0,0,0,0,0,0,0,0,0,0,0,0,0,0,0,0,0,0,0,0,0,0,0,0.1859,0.1859,0,0.1915,0.1916,0.1917,0.2009,0.2011,0.2012,0.2014,0.207,0.207,0.2071,0,0,0,0,0,0,0,0,0,0,0,0,0,0.1919,0.1917,0.1859,0.186,0.186,0.1915,0.1916,0.1917,0.2009,0.2011,0.2013,0.2015,0.207,0.207,0.2071,0,0,0,0,0,0,0,0,0,0,0,0,0,0.1927,0.1917,0.1859,0.1912,0.1917,0.1915,0.1916,0.1917,0.2009,0.2011,0.2013,0.2016,0.207,0.207,0.2071,0.2023,0,0,0.2071,0.2071,0,0,0,0,0,0,0,0,0.1926,0.1925,0.1903,0.1908,0.1914,0.1957,0.1958,0.1952,0.2008,0.1975,0.2014,0.2017,0.203,0.2033,0.204,0.2025,0.2028,0.2071,0.2071,0.2071,0.2071,0,0,0,0,0,0,0,0.1925,0.1923,0.1882,0.1904,0.191,0.1963,0.1966,0.1958,0.1989,0.1978,0.1985,0.1988,0.2033,0.204,0.2042,0.2029,0.2071,0.2071,0.2071,0.2071,0.2126,0.2128,0,0,0,0,0,0,0.1908,0.1922,0.1881,0.1884,0.1925,0.1959,0.1963,0.1941,0.199,0.1999,0.1986,0.1992,0.2039,0.2042,0.2045,0.211,0.2071,0.2071,0.2071,0.2125,0.2127,0.2128,0,0,0,0,0,0,0.1909,0.1903,0.1878,0.1906,0.1906,0.1955,0.1931,0.1941,0.1983,0.1995,0.2006,0.2021,0.2041,0.2045,0.2065,0.2108,0.2071,0.2071,0.2123,0.2126,0.2128,0.2164,0,0,0,0,0,0,0.191,0.1902,0.1901,0.1903,0.1904,0.1892,0.1929,0.1941,0.1978,0.1988,0.2027,0.2033,0.2043,0.2065,0.2065,0.2108,0.2071,0.2121,0.2124,0.2127,0.2161,0.2167,0.2172,0,0,0,0,0,0.1911,0.1887,0.19,0.1897,0.1892,0.1891,0.1897,0.1942,0.1978,0.1991,0.2023,0.2034,0.2084,0.2064,0.2064,0.2109,0.212,0.2124,0.2127,0.2158,0.2166,0.2172,0,0,0,0,0,0,0.1895,0.1893,0.1909,0.1881,0.1896,0.1907,0.1931,0.1952,0.1987,0.2015,0.2029,0.2036,0.2084,0.2079,0.2058,0.2136,0.2113,0.2116,0.2137,0.2144,0.2149,0.2193,0.2071,0,0,0,0,0,0.189,0.1882,0.1887,0.1866,0.1885,0.1914,0.1928,0.1956,0.1976,0.1998,0.203,0.2065,0.2089,0.2102,0.2126,0.214,0.2164,0.2177,0.2183,0.2188,0.2225,0.2294,0.231,0.2139,0.2139,0.2139,0,0,0.1869,0.1874,0.1865,0.1866,0.1893,0.1906,0.1931,0.1959,0.1985,0.1993,0.2058,0.2086,0.2099,0.214,0.2161,0.2143,0.2241,0.2192,0.2196,0.2231,0.23,0.2316,0.2331,0.2142,0.2141,0.2141,0,0,0.184,0.1843,0.1847,0.186,0.1902,0.1919,0.1931,0.1971,0.2019,0.2048,0.2088,0.2148,0.2159,0.2207,0.2219,0.2266,0.2275,0.2268,0.2324,0.239,0.2405,0.2419,0.2434,0.2449,0.2264,0.2264,0.2264,0,0.1824,0.1827,0.1846,0.1862,0.1886,0.1926,0.1947,0.1978,0.2023,0.2076,0.2079,0.2189,0.2202,0.2276,0.2302,0.2285,0.23,0.229,0.2399,0.2413,0.2427,0.2439,0.2455,0.2266,0.2266,0.2265,0.2265,0,0.1815,0.1822,0.1829,0.1866,0.1887,0.191,0.1954,0.201,0.2069,0.2111,0.2222,0.2259,0.2333,0.2344,0.2331,0.2442,0.2412,0.2402,0.2381,0.2446,0.2454,0.2471,0.2269,0.2268,0.2268,0.2267,0,0,0.1771,0.1816,0.1825,0.186,0.1903,0.1924,0.198,0.2058,0.2119,0.2199,0.2289,0.2372,0.2433,0.2455,0.2475,0.2533,0.2622,0.2508,0.2511,0.2523,0.2735,0.2512,0.2507,0.2624,0.2628,0.2632,0.2688,0,0.1778,0.1816,0.1833,0.1876,0.1914,0.1965,0.2013,0.2088,0.215,0.224,0.2347,0.2426,0.2457,0.2499,0.2576,0.2618,0.2673,0.2606,0.2672,0.2674,0.2469,0.2523,0.2359,0.2379,0.2703,0.2706,0.2708,0,0.1788,0.1822,0.1867,0.1933,0.1958,0.1979,0.2095,0.2136,0.2251,0.2308,0.2426,0.2486,0.2626,0.2614,0.2777,0.2729,0.2753,0.2774,0.2776,0.2579,0.2483,0.2375,0.2396,0.2735,0.2733,0.2731,0.2729,0,0.181,0.1852,0.1903,0.1918,0.1985,0.2036,0.2083,0.2178,0.2229,0.2355,0.2402,0.2569,0.2643,0.2751,0.2806,0.2805,0.2928,0.2925,0.2753,0.2735,0.2617,0.2581,0.304,0.3039,0.3039,0.3039,0.3039,0,0.1831,0.1871,0.1919,0.1949,0.2023,0.2062,0.2141,0.2206,0.2282,0.2329,0.245,0.251,0.2682,0.2758,0.2824,0.2819,0.2953,0.2783,0.2749,0.2614,0.2579,0.2912,0.2897,0.3041,0.3041,0.304,0.304,0,0.1853,0.1882,0.1937,0.201,0.2033,0.2091,0.2151,0.219,0.2269,0.2324,0.2368,0.2493,0.2578,0.2685,0.2813,0.2795,0.2834,0.2788,0.258,0.2518,0.2599,0.2586,0.2643,0.2635,0.2629,0.2624,0.262,0,0.1878,0.1904,0.197,0.2002,0.2035,0.2103,0.2135,0.2193,0.218,0.2296,0.2292,0.2405,0.2436,0.2515,0.2524,0.2562,0.2671,0.2372,0.2345,0.2605,0.2567,0.2563,0.2557,0.221,0.2202,0.2197,0.2192,0,0.1926,0.194,0.1988,0.203,0.2065,0.2066,0.208,0.208,0.2122,0.2171,0.2197,0.2248,0.2269,0.2209,0.219,0.2201,0.2356,0.2242,0.2628,0.2288,0.2188,0.2153,0.2164,0.2139,0.2144,0.2148,0.2151,0.2153,0.1966,0.1987,0.203,0.2063,0.207,0.2011,0.2006,0.1987,0.1992,0.1974,0.2026,0.2005,0.1994,0.1875,0.183,0.181,0.1985,0.1933,0.1957,0.1987,0.1879,0.1769,0.1621,0.1623,0.1625,0.1627,0.1628,0,0.1992,0.2007,0.2052,0.2059,0.2012,0.2026,0.1943,0.1877,0.1856,0.1802,0.1778,0.1578,0.1514,0.1531,0.1427,0.1396,0.1462,0.1334,0.1443,0.1495,0.1541,0.1417,0.1034,0.1032,0.103,0.1028,0,0,0.2019,0.2045,0.2042,0.1984,0.1981,0.1862,0.1806,0.1711,0.1604,0.1482,0.1404,0.14,0.1457,0.121,0.1182,0.1097,0.1288,0.1047,0.1529,0.171,0.1753,0.1891,0.1755,0,0,0,0,0]},{"header":{"parameterUnit":"m.s-1","parameterCategory":2,"la1":30.2991,"la2":30.254,"lo1":-89.0895,"lo2":-89.0444,"dy":0.0017,"dx":0.0017,"nx":28,"ny":28,"refTime":"2023-10-22T09:00:00:Z","depth":"2","parameterNumber":3,"parameterNumberName":"V-component_of_CURRENTS"},"data":[0,0,0,0,0,0,0,0,0,0,0,0,0,0,0,0,0,0,0,0,0,0,0,0,0,0,0,0,0,0,0,0,0,0,0,0,0,0,0,0,0,0,0,0,0,0,0,0,0,0,0,0,0,0,0,0,0,0,0.0496,0.0497,0,0.0575,0.0576,0.0576,0.056,0.0559,0.0559,0.0558,0.0489,0.0488,0.0487,0,0,0,0,0,0,0,0,0,0,0,0,0,0.0384,0.0385,0.0495,0.0497,0.0499,0.0575,0.0576,0.0576,0.056,0.0559,0.0559,0.0558,0.049,0.0488,0.0487,0,0,0,0,0,0,0,0,0,0,0,0,0,0.0437,0.0385,0.0495,0.0506,0.0509,0.0575,0.0576,0.0576,0.056,0.0559,0.0558,0.0557,0.049,0.0489,0.0487,0.0498,0,0,0.0482,0.0481,0,0,0,0,0,0,0,0,0.0434,0.044,0.0503,0.0506,0.0509,0.0564,0.0512,0.0545,0.0561,0.0532,0.0558,0.0557,0.0506,0.0503,0.0512,0.0495,0.0492,0.0481,0.048,0.048,0.0479,0,0,0,0,0,0,0,0.043,0.0437,0.0519,0.0505,0.0509,0.0527,0.0531,0.0518,0.0516,0.0535,0.0536,0.0558,0.0506,0.0513,0.051,0.0491,0.0481,0.048,0.0479,0.0478,0.0419,0.0419,0,0,0,0,0,0,0.0435,0.0434,0.0517,0.0522,0.0477,0.053,0.0535,0.0541,0.0519,0.0518,0.0559,0.0557,0.0517,0.0512,0.0507,0.0477,0.048,0.0478,0.0477,0.042,0.0419,0.0418,0,0,0,0,0,0,0.0432,0.0441,0.0514,0.0487,0.0498,0.0533,0.054,0.0543,0.0527,0.054,0.0534,0.0537,0.0516,0.0509,0.0481,0.0475,0.0477,0.0476,0.042,0.0419,0.0419,0.0443,0,0,0,0,0,0,0.0428,0.0439,0.0426,0.0487,0.05,0.0527,0.0542,0.0545,0.0548,0.0545,0.052,0.0515,0.0515,0.0484,0.0479,0.0473,0.0474,0.0421,0.042,0.0419,0.0443,0.0443,0.0443,0,0,0,0,0,0.0423,0.0417,0.0424,0.0434,0.0487,0.0527,0.0533,0.055,0.0547,0.0531,0.0525,0.0514,0.0474,0.0482,0.0477,0.047,0.0421,0.042,0.0419,0.0442,0.0443,0.0443,0,0,0,0,0,0,0.036,0.0418,0.0426,0.0435,0.0467,0.0526,0.052,0.0536,0.0523,0.051,0.0511,0.0505,0.0482,0.0466,0.0476,0.0448,0.0444,0.0442,0.0464,0.0464,0.0464,0.051,0.0473,0,0,0,0,0,0.0344,0.0354,0.0408,0.0415,0.0423,0.0464,0.0477,0.0493,0.0508,0.05,0.0488,0.0475,0.0479,0.0462,0.0454,0.0434,0.0443,0.0423,0.0423,0.0424,0.0457,0.0474,0.048,0.0414,0.0414,0.0414,0,0,0.033,0.0361,0.0368,0.0403,0.0424,0.0457,0.0465,0.0479,0.0514,0.0493,0.0493,0.0473,0.0475,0.0464,0.0451,0.0445,0.0437,0.0422,0.0423,0.0456,0.0473,0.048,0.0486,0.0414,0.0414,0.0414,0,0,0.0333,0.032,0.0339,0.0359,0.0396,0.0426,0.0424,0.0459,0.0464,0.0469,0.0476,0.0464,0.0434,0.046,0.0469,0.0463,0.0444,0.0427,0.0461,0.0476,0.0483,0.0489,0.0475,0.048,0.0421,0.0421,0.0421,0,0.0311,0.0351,0.0348,0.0375,0.0411,0.0412,0.0455,0.0465,0.0487,0.0514,0.046,0.0481,0.0455,0.0513,0.0496,0.047,0.0455,0.0463,0.048,0.0487,0.0493,0.0477,0.0482,0.0422,0.0422,0.0422,0.0422,0,0.035,0.037,0.0376,0.042,0.0442,0.047,0.0504,0.0511,0.0506,0.0533,0.0552,0.0523,0.0547,0.0515,0.0497,0.053,0.0495,0.0485,0.0488,0.0501,0.0482,0.0487,0.0423,0.0423,0.0423,0.0422,0,0,0.0355,0.0399,0.0403,0.045,0.0474,0.0517,0.0552,0.062,0.068,0.0635,0.0713,0.0674,0.0646,0.0654,0.0622,0.061,0.0602,0.0546,0.0547,0.0548,0.0602,0.0495,0.049,0.058,0.0582,0.0584,0.056,0,0.0398,0.047,0.0481,0.0564,0.0613,0.0628,0.0689,0.0738,0.0744,0.0797,0.0773,0.0801,0.0704,0.0702,0.0679,0.0645,0.062,0.0608,0.0578,0.0577,0.0494,0.0495,0.0507,0.0481,0.0565,0.0566,0.0567,0,0.045,0.0503,0.0582,0.0692,0.0715,0.0752,0.0867,0.0919,0.0976,0.0974,0.0976,0.0952,0.0948,0.0847,0.0796,0.0781,0.0692,0.0639,0.0637,0.0546,0.0481,0.0486,0.0486,0.0575,0.0574,0.0574,0.0573,0,0.0505,0.0587,0.0663,0.0689,0.079,0.084,0.0895,0.0967,0.1022,0.1074,0.109,0.1095,0.1075,0.1002,0.0855,0.0826,0.0781,0.0744,0.0571,0.0561,0.0576,0.0564,0.0708,0.0708,0.0708,0.0708,0.0708,0,0.0573,0.0644,0.0688,0.0735,0.0858,0.09,0.1025,0.1068,0.1128,0.1196,0.1168,0.1196,0.1101,0.1052,0.0924,0.0756,0.0836,0.059,0.0558,0.0575,0.0564,0.0658,0.0653,0.0707,0.0708,0.0708,0.0708,0,0.0638,0.0659,0.0759,0.0849,0.088,0.0964,0.1071,0.1167,0.1187,0.1266,0.1274,0.1265,0.1183,0.1074,0.096,0.0824,0.0704,0.0618,0.062,0.0587,0.0455,0.0451,0.0447,0.0443,0.044,0.0437,0.0435,0,0.069,0.0735,0.0819,0.0874,0.0908,0.1025,0.1123,0.1184,0.1254,0.1301,0.1339,0.1281,0.1247,0.1043,0.0832,0.0625,0.0614,0.0477,0.0424,0.0464,0.0433,0.0434,0.0434,0.0446,0.0444,0.0443,0.0441,0,0.079,0.0787,0.0857,0.0942,0.1026,0.1158,0.126,0.1294,0.137,0.1414,0.1427,0.1399,0.1192,0.0991,0.0696,0.0556,0.0517,0.043,0.0525,0.0485,0.0455,0.0426,0.0429,0.0427,0.0429,0.043,0.043,0.0431,0.0847,0.0889,0.093,0.1024,0.1125,0.1225,0.1289,0.1382,0.1458,0.1455,0.1463,0.1384,0.1197,0.077,0.0569,0.0341,0.0348,0.0273,0.0283,0.0294,0.0273,0.0236,0.0163,0.0163,0.0163,0.0162,0.0162,0,0.0902,0.0933,0.1017,0.109,0.1172,0.1227,0.1353,0.1386,0.143,0.145,0.1434,0.118,0.0979,0.0746,0.0392,0.0193,0.0223,0.0126,0.0233,0.0247,0.026,0.0242,0.0121,0.012,0.0119,0.0119,0,0,0.093,0.0986,0.101,0.1107,0.1144,0.1226,0.1269,0.1308,0.1335,0.1305,0.1247,0.1213,0.0976,0.0708,0.0478,0.0294,0.0306,0.0248,0.0301,0.0467,0.0482,0.036,0.0348,0,0,0,0,0]}],[{"header":{"parameterUnit":"m.s-1","parameterCategory":2,"la1":30.2991,"la2":30.254,"lo1":-89.0895,"lo2":-89.0444,"dy":0.0017,"dx":0.0017,"nx":28,"ny":28,"refTime":"2023-10-22T09:00:00:Z","depth":"4","parameterNumber":2,"parameterNumberName":"U-component_of_CURRENTS"},"data":[0,0,0,0,0,0,0,0,0,0,0,0,0,0,0,0,0,0,0,0,0,0,0,0,0,0,0,0,0,0,0,0,0,0,0,0,0,0,0,0,0,0,0,0,0,0,0,0,0,0,0,0,0,0,0,0,0,0,0.0135,0.0135,0,0.012,0.012,0.012,0.0137,0.0137,0.0138,0.0138,0.0143,0.0143,0.0142,0,0,0,0,0,0,0,0,0,0,0,0,0,0.0134,0.0134,0.0135,0.0135,0.0135,0.012,0.012,0.012,0.0137,0.0137,0.0138,0.0139,0.0143,0.0143,0.0142,0,0,0,0,0,0,0,0,0,0,0,0,0,0.013,0.0135,0.0135,0.014,0.014,0.012,0.012,0.012,0.0137,0.0137,0.0138,0.0139,0.0143,0.0143,0.0142,0.0123,0,0,0.014,0.014,0,0,0,0,0,0,0,0,0.013,0.013,0.014,0.014,0.014,0.013,0.0121,0.0121,0.0136,0.0139,0.0138,0.0139,0.0139,0.0139,0.0136,0.0123,0.0123,0.014,0.014,0.014,0.014,0,0,0,0,0,0,0,0.013,0.013,0.013,0.0139,0.014,0.0128,0.0129,0.0121,0.0136,0.0139,0.014,0.0136,0.0139,0.0136,0.0136,0.0123,0.014,0.014,0.0139,0.0139,0.0238,0.0241,0,0,0,0,0,0,0.0131,0.0131,0.0131,0.013,0.0135,0.0127,0.0128,0.0133,0.0136,0.0137,0.0135,0.0137,0.0137,0.0137,0.0136,0.022,0.014,0.0139,0.0139,0.0235,0.0239,0.0242,0,0,0,0,0,0,0.0131,0.0132,0.0132,0.0128,0.0127,0.0127,0.0132,0.0133,0.0146,0.0133,0.0134,0.015,0.0137,0.0137,0.0172,0.0216,0.0139,0.0138,0.0232,0.0236,0.024,0.032,0,0,0,0,0,0,0.0131,0.0132,0.0135,0.0129,0.0128,0.0144,0.0131,0.0132,0.014,0.0143,0.0145,0.0145,0.0138,0.0173,0.0171,0.0214,0.0138,0.0228,0.0234,0.0239,0.0313,0.0326,0.0337,0,0,0,0,0,0.0132,0.0124,0.0135,0.0135,0.0132,0.0145,0.0144,0.0146,0.014,0.0158,0.0172,0.0146,0.0208,0.0174,0.0172,0.0216,0.0225,0.0232,0.0239,0.0308,0.0324,0.0337,0,0,0,0,0,0,0.0128,0.0125,0.0137,0.0131,0.0153,0.0148,0.0143,0.0153,0.0174,0.0177,0.0169,0.0172,0.0223,0.0211,0.0175,0.0267,0.0217,0.0224,0.0271,0.0286,0.0298,0.031,0.0138,0,0,0,0,0,0.0129,0.012,0.0136,0.0135,0.014,0.0148,0.0149,0.0165,0.0178,0.0187,0.0193,0.0212,0.0244,0.0258,0.0275,0.031,0.0303,0.0344,0.0356,0.0366,0.0379,0.043,0.0447,0.0264,0.0264,0.0264,0,0,0.0128,0.0121,0.012,0.0133,0.0137,0.0154,0.0151,0.0166,0.0197,0.0183,0.022,0.0246,0.0264,0.0319,0.0341,0.0316,0.0412,0.0375,0.0383,0.0391,0.0439,0.0456,0.0472,0.0268,0.0268,0.0267,0,0,0.0114,0.0118,0.011,0.013,0.0148,0.0158,0.017,0.0192,0.0219,0.0261,0.0277,0.034,0.0354,0.0404,0.0423,0.051,0.0473,0.0516,0.0584,0.0634,0.0649,0.0662,0.0654,0.0666,0.0524,0.0524,0.0524,0,0.0118,0.0116,0.0115,0.0123,0.0143,0.0164,0.0192,0.0215,0.0255,0.0292,0.0285,0.0388,0.0401,0.0501,0.0545,0.0537,0.0538,0.0521,0.0648,0.0661,0.0673,0.0662,0.0674,0.0528,0.0528,0.0527,0.0527,0,0.0108,0.0118,0.0114,0.0134,0.0161,0.0185,0.0229,0.0268,0.0298,0.0333,0.0439,0.0487,0.0557,0.0582,0.0586,0.0701,0.0662,0.0652,0.0603,0.0696,0.0678,0.0689,0.0535,0.0533,0.0532,0.0531,0,0,0.0094,0.0108,0.011,0.0137,0.0179,0.0205,0.0259,0.0329,0.0384,0.0444,0.053,0.0624,0.0669,0.07,0.074,0.0795,0.0876,0.0768,0.0768,0.0746,0.0949,0.0869,0.0872,0.0888,0.0891,0.0893,0.0893,0,0.0098,0.012,0.0129,0.0177,0.0203,0.0253,0.0311,0.0382,0.0441,0.0523,0.061,0.0698,0.0708,0.0771,0.0834,0.0862,0.0913,0.0874,0.0876,0.0875,0.0782,0.0886,0.0903,0.0901,0.0904,0.0905,0.0907,0,0.0087,0.0112,0.016,0.0229,0.0248,0.0291,0.0405,0.0465,0.0576,0.0633,0.0738,0.078,0.0894,0.0887,0.0986,0.0959,0.0974,0.0985,0.0985,0.0893,0.0817,0.0798,0.0926,0.0924,0.0923,0.0922,0.0921,0,0.0083,0.0129,0.0176,0.02,0.0283,0.0338,0.0399,0.051,0.0582,0.0715,0.0773,0.0888,0.0963,0.1009,0.103,0.1015,0.1106,0.1076,0.1017,0.1008,0.1038,0.1025,0.1163,0.1163,0.1163,0.1163,0.1163,0,0.0077,0.0109,0.0186,0.0215,0.0303,0.0369,0.0485,0.0555,0.0682,0.077,0.0847,0.0929,0.1003,0.1047,0.1055,0.1062,0.1124,0.105,0.1026,0.1068,0.1058,0.1044,0.103,0.1163,0.1163,0.1163,0.1163,0,0.005,0.0091,0.0154,0.026,0.0298,0.0375,0.0515,0.0594,0.0715,0.0832,0.0874,0.0973,0.1031,0.1067,0.113,0.1088,0.11,0.1092,0.1112,0.1085,0.0952,0.0943,0.1013,0.101,0.1008,0.1007,0.1005,0,0.0038,0.0065,0.018,0.0222,0.027,0.0391,0.047,0.061,0.0687,0.0846,0.0887,0.0982,0.1037,0.1054,0.109,0.1087,0.1087,0.1053,0.1039,0.0979,0.0949,0.0942,0.0936,0.1002,0.1002,0.1001,0.1001,0,0.0022,0.0062,0.012,0.021,0.0293,0.0382,0.0498,0.0551,0.071,0.0814,0.0902,0.0936,0.1002,0.1024,0.1039,0.1036,0.1047,0.1032,0.1036,0.1022,0.0967,0.0937,0.0933,0.0994,0.0995,0.0995,0.0996,0,0.0016,0.0054,0.0126,0.0215,0.0283,0.0341,0.0418,0.0523,0.0625,0.0795,0.0818,0.0921,0.1008,0.0999,0.1005,0.1,0.0981,0.0924,0.0933,0.0941,0.0917,0.0836,0.0826,0,0,0,0,0,0.0027,0.0062,0.0119,0.0207,0.0255,0.0309,0.0415,0.0493,0.0641,0.069,0.0763,0.0826,0.0868,0.0905,0.0885,0.0935,0.0954,0.0901,0.0886,0.0956,0.0964,0.0941,0,0,0,0,0,0,0.0032,0.0072,0.0119,0.0172,0.0217,0.0284,0.035,0.0444,0.0489,0.0627,0.0665,0.076,0.0816,0.0888,0.0872,0.0878,0.0843,0.0964,0.0961,0.0951,0.0958,0.0965,0.0944,0,0,0,0,0]},{"header":{"parameterUnit":"m.s-1","parameterCategory":2,"la1":30.2991,"la2":30.254,"lo1":-89.0895,"lo2":-89.0444,"dy":0.0017,"dx":0.0017,"nx":28,"ny":28,"refTime":"2023-10-22T09:00:00:Z","depth":"4","parameterNumber":3,"parameterNumberName":"V-component_of_CURRENTS"},"data":[0,0,0,0,0,0,0,0,0,0,0,0,0,0,0,0,0,0,0,0,0,0,0,0,0,0,0,0,0,0,0,0,0,0,0,0,0,0,0,0,0,0,0,0,0,0,0,0,0,0,0,0,0,0,0,0,0,0,0.0563,0.0563,0,0.0589,0.0589,0.0589,0.0621,0.0622,0.0623,0.0624,0.0629,0.0628,0.0628,0,0,0,0,0,0,0,0,0,0,0,0,0,0.0525,0.0525,0.0563,0.0563,0.0564,0.0589,0.0589,0.0589,0.0621,0.0622,0.0623,0.0624,0.0629,0.0628,0.0627,0,0,0,0,0,0,0,0,0,0,0,0,0,0.0543,0.0526,0.0563,0.0585,0.0588,0.0589,0.0589,0.0589,0.0621,0.0622,0.0624,0.0625,0.0629,0.0628,0.0627,0.0598,0,0,0.0625,0.0624,0,0,0,0,0,0,0,0,0.0541,0.0543,0.0581,0.0584,0.0587,0.0606,0.0578,0.0592,0.0621,0.0605,0.0624,0.0625,0.062,0.062,0.0618,0.0599,0.0599,0.0625,0.0624,0.0624,0.0623,0,0,0,0,0,0,0,0.054,0.0542,0.057,0.0582,0.0585,0.0589,0.0593,0.0581,0.0603,0.0607,0.061,0.0617,0.0621,0.0619,0.0619,0.0599,0.0625,0.0624,0.0623,0.0623,0.059,0.0589,0,0,0,0,0,0,0.0543,0.0541,0.0569,0.0571,0.057,0.0589,0.0593,0.0596,0.0604,0.0607,0.0616,0.0619,0.062,0.062,0.0619,0.0625,0.0624,0.0623,0.0622,0.059,0.059,0.0589,0,0,0,0,0,0,0.0542,0.0545,0.0568,0.056,0.0564,0.0589,0.0592,0.0596,0.0614,0.0612,0.0614,0.0633,0.0621,0.062,0.0624,0.0624,0.0622,0.0622,0.059,0.059,0.0589,0.0611,0,0,0,0,0,0,0.054,0.0544,0.0552,0.056,0.0564,0.0585,0.0591,0.0596,0.0617,0.0621,0.0626,0.0627,0.0622,0.0626,0.0623,0.0623,0.0621,0.0591,0.059,0.059,0.061,0.0611,0.0611,0,0,0,0,0,0.0539,0.0541,0.0552,0.0556,0.0572,0.0586,0.0588,0.0608,0.0617,0.0627,0.0629,0.0628,0.062,0.0625,0.0622,0.0621,0.0591,0.059,0.059,0.061,0.0611,0.0611,0,0,0,0,0,0,0.0523,0.0545,0.0557,0.0565,0.0583,0.0593,0.0605,0.0615,0.0624,0.063,0.0626,0.0626,0.0629,0.0619,0.0625,0.0608,0.0603,0.0602,0.062,0.062,0.0621,0.0616,0.062,0,0,0,0,0,0.0524,0.0538,0.0556,0.0566,0.0576,0.0592,0.0602,0.0615,0.0623,0.063,0.0633,0.0628,0.0618,0.0617,0.0609,0.0601,0.0559,0.0596,0.0596,0.0597,0.059,0.0521,0.0514,0.0587,0.0587,0.0587,0,0,0.0518,0.0536,0.0542,0.0565,0.0579,0.059,0.0601,0.0621,0.0625,0.0626,0.0636,0.0634,0.0616,0.061,0.0609,0.0606,0.0554,0.0596,0.0597,0.0589,0.0519,0.0512,0.0505,0.0586,0.0586,0.0586,0,0,0.0521,0.0533,0.055,0.0565,0.0596,0.0599,0.0608,0.0627,0.0636,0.0642,0.064,0.0637,0.063,0.0614,0.0603,0.0597,0.056,0.06,0.0598,0.0531,0.0525,0.0518,0.0454,0.0442,0.0599,0.0599,0.0599,0,0.0516,0.054,0.0557,0.0577,0.0588,0.0604,0.0617,0.0619,0.0637,0.0629,0.065,0.0628,0.0624,0.0595,0.0602,0.0597,0.0555,0.0601,0.0531,0.0524,0.0517,0.0453,0.0439,0.06,0.06,0.06,0.06,0,0.0535,0.0553,0.0563,0.0591,0.06,0.0615,0.0621,0.0629,0.0639,0.063,0.0622,0.0622,0.0607,0.0606,0.0607,0.056,0.0545,0.0541,0.053,0.0511,0.0445,0.043,0.0601,0.0601,0.0601,0.06,0,0,0.0525,0.0568,0.0575,0.0589,0.061,0.0616,0.0616,0.061,0.06,0.0612,0.0592,0.0588,0.0592,0.0579,0.0582,0.0534,0.0458,0.0525,0.0521,0.0462,0.0306,0.0329,0.0315,0.0443,0.0441,0.0439,0.028,0,0.0539,0.0578,0.0591,0.0609,0.0623,0.0626,0.0626,0.0616,0.0602,0.0583,0.0567,0.0555,0.0578,0.0584,0.054,0.0474,0.042,0.0501,0.0333,0.0328,0.0351,0.0299,0.0431,0.0268,0.0265,0.0262,0.026,0,0.0556,0.0582,0.0614,0.0624,0.063,0.0644,0.0632,0.0633,0.0594,0.0588,0.0564,0.0538,0.0487,0.0515,0.0384,0.0435,0.0376,0.0325,0.0317,0.0319,0.0323,0.0291,0.0233,0.0235,0.0237,0.0239,0.0241,0,0.0552,0.0586,0.0613,0.0621,0.0641,0.0656,0.0668,0.0642,0.0642,0.0594,0.058,0.0503,0.0487,0.0386,0.0306,0.0329,0.0148,0.0159,0.0118,0.0118,0.0137,0.0146,0.0053,0.0053,0.0053,0.0054,0.0054,0,0.055,0.0568,0.0625,0.0642,0.067,0.0681,0.0702,0.069,0.0681,0.0667,0.0603,0.0576,0.0455,0.0346,0.0264,0.0145,0.0109,0.0098,0.0072,0.0151,0.0163,0.0126,0.0137,0.0048,0.0049,0.005,0.0051,0,0.0525,0.0569,0.0603,0.0653,0.0677,0.0702,0.0758,0.0769,0.0754,0.0734,0.0721,0.061,0.0474,0.0341,0.0162,0.0107,-0.0023,-0.0051,0.0033,0.0018,-0.0005,0.0009,-0.0145,-0.0146,-0.0146,-0.0147,-0.0147,0,0.0506,0.0535,0.0616,0.0658,0.0692,0.075,0.0801,0.0821,0.0826,0.0759,0.0742,0.0606,0.0525,0.028,0.0147,-0.0051,-0.0045,-0.0132,-0.0058,-0.0019,-0.0029,-0.0014,-0.0,-0.0148,-0.0148,-0.0148,-0.0148,0,0.048,0.0531,0.057,0.0661,0.0738,0.08,0.0862,0.0867,0.0872,0.0852,0.0755,0.062,0.0469,0.0287,0.0139,0.001,-0.0098,-0.0138,-0.0137,-0.0068,-0.0024,-0.003,-0.0016,-0.015,-0.015,-0.015,-0.015,0,0.0467,0.0505,0.0591,0.0667,0.0743,0.0814,0.0855,0.0877,0.0889,0.0814,0.0781,0.062,0.0523,0.0318,0.0176,0.0048,0.003,-0.0006,-0.0012,-0.0012,0.0094,0.0174,0.0067,0,0,0,0,0,0.0459,0.053,0.0593,0.0693,0.0754,0.0819,0.0872,0.0907,0.0904,0.0851,0.082,0.0684,0.0466,0.0359,0.0237,0.0167,0.0001,0.0017,-0.0044,-0.0161,-0.0159,-0.0053,0,0,0,0,0,0,0.0468,0.0538,0.0597,0.0692,0.0756,0.0852,0.0892,0.0906,0.0871,0.0835,0.0724,0.0665,0.0457,0.0552,0.0242,0.0199,0.0144,-0.0083,-0.0086,-0.0163,-0.016,-0.0159,-0.0048,0,0,0,0,0]}]]